FLOCK 3P-38 (42037 NORAD) Tracking and Keplerian Element Data

This shows tracking and keplerian element data for the satellite.

Feedback or suggestion? Click here.




ElementValue
Catalog42037
NameFLOCK 3P-38
Epoch Orbit5541
Epoch Day45.79425334
Epoch Year2018
RAAN111.3933
Inclination97.4656
Eccentricity0.0009269
Argument of Perigee87.9825
Mean Anonmoly272.2473
Mean Motion15.23924638
Decay Rate1.482E-05
L11 42037U 17008CT 18045.79425334 .00001482 00000-0 64261-4 0 9995
L22 42037 97.4656 111.3933 0009269 87.9825 272.2473 15.23924638 55416

Live tracking and technical data element details for FLOCK 3P-38 (NORAD 42037). FLOCK 3P-38 can be tracked NOW for your location showing map with azimuth and elevation plus other details from your city location.

Track the satellite on the map from your city or location and see movement details for azimuth, elevation, latitude, longitude, range, height, and movement on the map or in text.







IsCatalogInMostPopularTable: catalog: 42037, numindb: 136
Update: records affected: 1



GetName: 42037 FLOCK 3P-38

Hit Count: updated at: Mon, 19 Nov 2018 13:04:35 GMT